Location: Aytr�
(46.1357°N, 1.1145°W)
Time: 08:08:26
(UTC+00:00)

Tiangong - Pass Details

Date: 30 September 2021
Orbit: 382 x 385 km, 41.5° (Epoch: 15 October)

Event Time Altitude Azimuth Distance (km) Brightness Sun altitude
Exits shadow 04:47:15 21° 218° (SW) 936 2.6 -13.7°
Maximum altitude 04:48:42 31° 172° (S) 700 2.3 -13.4°
Drops below altitude 10° 04:51:32 10° 107° (ESE) 1,398 4.9 -12.9°
Sets 04:53:44 0° 97° (E) 2,251 6.6 -12.6°
